TimeEST,TemperatureF,Dew PointF,Humidity,Sea Level PressureIn,VisibilityMPH,Wind Direction,Wind SpeedMPH,Gust SpeedMPH,PrecipitationIn,Events,Conditions,WindDirDegrees,DateUTC
12:51 AM,15.1,3.0,59,29.89,10.0,Calm,Calm,-,N/A,,Mostly Cloudy,0,2013-02-17 05:51:00
1:51 AM,12.9,3.0,65,29.85,10.0,Calm,Calm,-,N/A,,Mostly Cloudy,0,2013-02-17 06:51:00
2:51 AM,12.0,1.9,64,29.85,10.0,Calm,Calm,-,N/A,,Overcast,0,2013-02-17 07:51:00
3:51 AM,10.9,1.9,67,29.83,10.0,North,3.5,-,N/A,,Mostly Cloudy,360,2013-02-17 08:51:00
4:51 AM,10.0,3.0,73,29.82,10.0,NNW,6.9,-,N/A,,Mostly Cloudy,340,2013-02-17 09:51:00
5:51 AM,10.0,3.0,73,29.80,10.0,NW,10.4,-,N/A,,Overcast,320,2013-02-17 10:51:00
6:51 AM,9.0,3.9,80,29.80,10.0,NW,10.4,-,N/A,,Overcast,320,2013-02-17 11:51:00
7:51 AM,9.0,5.0,84,29.77,7.0,NW,9.2,-,N/A,,Overcast,320,2013-02-17 12:51:00
8:13 AM,8.6,5.0,85,29.69,7.0,NNW,11.5,-,N/A,,Overcast,340,2013-02-17 13:13:00
8:42 AM,8.6,3.2,79,29.67,8.0,NW,10.4,-,N/A,,Mostly Cloudy,320,2013-02-17 13:42:00
8:51 AM,10.0,3.9,76,29.74,10.0,NW,11.5,19.6,N/A,,Overcast,320,2013-02-17 13:51:00
9:51 AM,10.0,3.0,73,29.72,10.0,NW,11.5,19.6,N/A,,Overcast,320,2013-02-17 14:51:00
10:51 AM,10.0,1.9,70,29.70,10.0,NW,9.2,19.6,N/A,,Overcast,320,2013-02-17 15:51:00
11:51 AM,10.0,1.0,67,29.68,10.0,NW,18.4,27.6,N/A,,Overcast,320,2013-02-17 16:51:00
12:51 PM,9.0,-0.0,67,29.67,10.0,NW,12.7,26.5,N/A,,Overcast,320,2013-02-17 17:51:00
1:51 PM,9.0,-0.0,67,29.67,10.0,NW,18.4,28.8,N/A,,Mostly Cloudy,310,2013-02-17 18:51:00
2:51 PM,10.0,-0.0,64,29.67,10.0,NW,15.0,26.5,N/A,,Mostly Cloudy,310,2013-02-17 19:51:00
3:51 PM,10.0,-0.9,61,29.67,10.0,NW,18.4,29.9,N/A,,Clear,310,2013-02-17 20:51:00
4:51 PM,9.0,-0.9,64,29.70,10.0,NW,17.3,29.9,N/A,,Mostly Cloudy,320,2013-02-17 21:51:00
5:51 PM,9.0,-0.9,64,29.72,10.0,NW,26.5,35.7,N/A,,Overcast,310,2013-02-17 22:51:00
6:41 PM,8.6,-0.4,67,29.65,10.0,NW,20.7,34.5,N/A,,Overcast,310,2013-02-17 23:41:00
6:51 PM,9.0,-0.9,64,29.74,10.0,NW,20.7,32.2,N/A,,Mostly Cloudy,310,2013-02-17 23:51:00
7:51 PM,8.1,-0.9,67,29.75,4.0,NW,25.3,43.7,0.00,,Overcast,310,2013-02-18 00:51:00
8:51 PM,8.1,-0.0,70,29.76,3.0,NW,20.7,38.0,0.00,Snow,Light Snow,310,2013-02-18 01:51:00
9:33 PM,8.6,-0.4,67,29.70,4.0,NW,13.8,28.8,0.00,,Overcast,320,2013-02-18 02:33:00
9:51 PM,8.1,-0.0,70,29.79,5.0,WNW,16.1,32.2,0.00,,Overcast,300,2013-02-18 02:51:00
10:24 PM,6.8,1.4,79,29.72,2.5,NW,13.8,29.9,0.00,Snow,Light Snow,320,2013-02-18 03:24:00
10:38 PM,6.8,1.4,79,29.72,3.0,NW,16.1,27.6,0.00,Snow,Light Snow,310,2013-02-18 03:38:00
10:51 PM,7.0,1.0,77,29.81,3.0,WNW,21.9,32.2,0.00,Snow,Light Snow,300,2013-02-18 03:51:00
10:59 PM,6.8,-0.4,72,29.73,4.0,WNW,21.9,34.5,0.00,,Overcast,300,2013-02-18 03:59:00